C/2023 E1 ( ATLAS )

Japanese version
Home page
Updated on March 19, 2023

---------------------------------------------------------------------

* Profile

Discovery Date March 1, 2023
Magnitude 18.8 mag
Discoverer Asteroid Terrestrial-Impact Last Alert System (ATLAS) search program

* Orbital Elements

Epoch 2023 Feb. 25.0 TT = JDT 2460000.5                                         
T 2023 July 1.10664 TT                                  Rudenko                 
q   1.0265887            (2000.0)            P               Q                  
n   0.01157792     Peri.  105.89416     +0.06328926     +0.98427822             
a  19.3515455      Node   164.57533     -0.97142816     +0.02288770             
e   0.9469506      Incl.   38.31458     +0.22873957     -0.17513578             
P  85.1                                                                         
>From 115 observations 2022 Dec. 25-2023 Mar. 12, mean residual 0".5.            

* Finding Charts

* Magnitudes Graph

        m1 = 14.5 + 5 log d + 10.0 log r

---------------------------------------------------------------------

The orbital elements are published on M.P.E.C. 2023-E59.
The charts are made with StellaNavigator Ver.11 (AstroArts).
The magnitudes graphs are made with Comet for Windows.

---------------------------------------------------------------------

Copyright(C) Seiichi Yoshida (comet@aerith.net). All rights reserved.